Regional Weather Roundup
Issued by NWS Albany, NY

Home | Current Version | Previous Version | Text Only | Print | Product List | Glossary On
Versions: 1 2 3 4 5 6 7 8 9 10 11 12 13 14 15 16 17 18 19 20 21 22 23 24 25 26 27
000
ASUS41 KALY 241210
RWRALY

NEW YORK STATE HOURLY WEATHER ROUNDUP
NATIONAL WEATHER SERVICE ALBANY NY
800 AM EDT SAT JUN 24 2017

NOTE: "FAIR" INDICATES FEW OR NO CLOUDS BELOW 12,000 FEET WITH NO
SIGNIFICANT WEATHER AND/OR NO OBSTRUCTIONS TO VISIBILITY.

NYZ032-033-038>043-046>054-057>066-NYZ062>081-082-084-241300-
EAST


CITY           SKY/WX    TMP DP  RH WIND       PRES   REMARKS
ALBANY         LGT RAIN  70  66  87 NW14      29.58R
GLENS FALLS    LGT RAIN  70  68  93 S7        29.56R FOG
POUGHKEEPSIE   CLOUDY    73  70  90 S5        29.58R
NEWBURGH       PTSUNNY   72  72 100 W8        29.61R
MONTGOMERY     CLOUDY    74  72  93 SW6       29.59R
WHITE PLAINS   RAIN      72  70  94 S3        29.59S FOG
ISLIP          HVY RAIN  71  70  96 S6        29.57F VSB 1
NEW YORK CITY  RAIN      71  71 100 NW7       29.59R FOG
CENTRAL PARK   RAIN      71  70  96 VRB3      29.62R FOG
$$

NYZ005>009-017-018-044>046-055-056-241300-
CENTRAL


CITY           SKY/WX    TMP DP  RH WIND       PRES   REMARKS
FULTON         SUNNY     67  61  81 W7        29.66R
SYRACUSE       MOSUNNY   67  63  87 W15       29.65R
ROME           CLOUDY    66  64  93 W10       29.64R
ELMIRA         SUNNY     66  64  94 SW7       29.70R
BINGHAMTON     MOSUNNY   61  59  94 W6        29.70R
MONTICELLO     CLOUDY    68  68 100 W9        29.66R
$$

NYZ026>034-041>043-087-241300-
NORTH


CITY           SKY/WX    TMP DP  RH WIND       PRES   REMARKS
WATERTOWN      PTSUNNY   66  64  93 W10       29.63R
FORT DRUM      NOT AVBL
OGDENSBURG     FAIR      66  62  88 CALM      29.60R
MASSENA        MOSUNNY   65  60  84 SW7       29.59R
SARANAC LAKE   CLOUDY    61  61 100 CALM      29.60R
PLATTSBURGH    CLOUDY    69  64  84 W3        29.53R
$$

NYZ001>004-010>016-019>021-085-241300-
WEST


CITY           SKY/WX    TMP DP  RH WIND       PRES   REMARKS
NIAGARA FALLS  SUNNY     69  54  58 W12       29.72R
BUFFALO        MOSUNNY   68  55  63 W9        29.73R
DUNKIRK        SUNNY     68  62  81 SW8       29.76R
JAMESTOWN      SUNNY     64  57  77 W8        29.80R
WELLSVILLE     SUNNY     65  55  70 W10       29.79R
ROCHESTER      MOSUNNY   68  58  70 W12       29.70R
PENN YAN       SUNNY     68  56  65 W9        29.70R
$$

             KEY
       WCI = WIND CHILL INDEX
       VSB = VISIBILITY
       HX  = HEAT INDEX
$$




USA.gov is the U.S. government's official web portal to all federal, state and local government web resources and services.